Mojave, CA

7:50 PM PDT on July 20, 2019 (GMT -0700)
Mojave

Weather History for KMHV - May, 2019

Change the Weather History Date:

Monday, May 20, 2019

  Actual Average Record
Temperature  
Mean Temperature 52 °F -  
Max Temperature 59 °F 81 °F 98 °F (1967)
Min Temperature 44 °F 55 °F 36 °F (1972)
Degree Days  
Heating Degree Days 14    
Growing Degree Days 2 (Base 50)    
Moisture  
Dew Point 36 °F    
Average Humidity 55    
Maximum Humidity 76    
Minimum Humidity 39    
Precipitation  
Precipitation 0.00 in - - ()
Sea Level Pressure  
Sea Level Pressure 29.84 in    
Wind  
Wind Speed 24 mph (West)    
Max Wind Speed 48 mph    
Max Gust Speed 64 mph    
Visibility 10 miles    
Events      
Averages and records for this station are not official NWS values.
T = Trace of Precipitation, MM = Missing Value Source: NWS Daily Summary

Daily Weather History Graph

Daily Weather History Graph

Search for Another Location

Airport or City:

Astronomy

May. 20, 2019 Rise Set
Actual Time 5:45 AM PDT 7:53 PM PDT
Civil Twilight 5:17 AM PDT 8:21 PM PDT
Nautical Twilight 4:42 AM PDT 8:56 PM PDT
Astronomical Twilight 4:04 AM PDT 9:34 PM PDT
Moon 9:57 PM PDT (5/20) 7:18 AM PDT (5/20)
Length of Visible Light 15h 04m
Length of Day
14h 07m
Waning Gibbous, 96% of the Moon is Illuminated
May 20
Waning Gibbous
May 26
Last Quarter
Jun 3
New
Jun 9
First Quarter
Jun 17
Full

Hourly Weather History & Observations

Time (PDT) Temp. Windchill Dew Point Humidity Pressure Visibility Wind Dir Wind Speed Gust Speed Precip Events Conditions
12:00 AM 46.4 °F 39.5 °F 37.4 °F 71% 29.81 in 10.0 mi WSW 17.3 mph - N/A   Overcast
12:20 AM 48.2 °F - 37.4 °F 66% 29.81 in 10.0 mi West 16.1 mph 23.0 mph N/A   Overcast
12:40 AM 48.2 °F - 37.4 °F 66% 29.82 in 10.0 mi WSW 16.1 mph 32.2 mph N/A   Overcast
1:00 AM 48.2 °F - 37.4 °F 66% 29.82 in 10.0 mi WSW 17.3 mph - N/A   Overcast
1:20 AM 48.2 °F - 37.4 °F 66% 29.82 in 10.0 mi West 16.1 mph 24.2 mph N/A   Overcast
1:40 AM 46.4 °F 39.0 °F 37.4 °F 71% 29.81 in 10.0 mi West 19.6 mph - N/A   Overcast
2:00 AM 46.4 °F 40.4 °F 35.6 °F 66% 29.80 in 10.0 mi WSW 13.8 mph - N/A   Overcast
2:20 AM 46.4 °F 40.7 °F 37.4 °F 71% 29.81 in 10.0 mi WSW 12.7 mph - N/A   Overcast
2:40 AM 46.4 °F 39.5 °F 37.4 °F 71% 29.81 in 10.0 mi WSW 17.3 mph - N/A   Overcast
3:00 AM 46.4 °F 40.1 °F 35.6 °F 66% 29.81 in 10.0 mi West 15.0 mph 28.8 mph N/A   Overcast
3:20 AM 46.4 °F 39.2 °F 37.4 °F 71% 29.81 in 10.0 mi West 18.4 mph 26.5 mph N/A   Overcast
3:40 AM 46.4 °F 38.3 °F 35.6 °F 66% 29.80 in 10.0 mi West 23.0 mph 33.4 mph N/A   Overcast
4:00 AM 44.6 °F 36.6 °F 37.4 °F 76% 29.80 in 10.0 mi West 19.6 mph 25.3 mph N/A   Mostly Cloudy
4:20 AM 44.6 °F 35.9 °F 35.6 °F 71% 29.78 in 10.0 mi West 23.0 mph 34.5 mph N/A   Mostly Cloudy
4:40 AM 44.6 °F 35.7 °F 35.6 °F 71% 29.78 in 10.0 mi West 24.2 mph - N/A   Mostly Cloudy
5:00 AM 44.6 °F 34.9 °F 35.6 °F 71% 29.77 in 10.0 mi WSW 28.8 mph 35.7 mph N/A   Partly Cloudy
5:20 AM 44.6 °F 38.1 °F 35.6 °F 71% 29.80 in 10.0 mi WSW 13.8 mph 25.3 mph N/A   Scattered Clouds
5:40 AM 44.6 °F 38.8 °F 35.6 °F 71% 29.80 in 10.0 mi West 11.5 mph - N/A   Mostly Cloudy
6:00 AM 46.4 °F 38.7 °F 35.6 °F 66% 29.80 in 10.0 mi WNW 20.7 mph 31.1 mph N/A   Partly Cloudy
6:20 AM 46.4 °F 38.3 °F 35.6 °F 66% 29.80 in 10.0 mi WNW 23.0 mph 34.5 mph N/A   Clear
6:40 AM 46.4 °F 40.1 °F 35.6 °F 66% 29.81 in 10.0 mi West 15.0 mph 26.5 mph N/A   Clear
7:00 AM 48.2 °F - 35.6 °F 62% 29.81 in 10.0 mi WNW 18.4 mph - N/A   Clear
7:20 AM 48.2 °F - 33.8 °F 58% 29.83 in 10.0 mi WNW 19.6 mph 27.6 mph N/A   Clear
7:40 AM 50.0 °F - 33.8 °F 54% 29.83 in 10.0 mi WNW 23.0 mph 32.2 mph N/A   Clear
8:00 AM 50.0 °F - 33.8 °F 54% 29.84 in 10.0 mi SW 5.8 mph 20.7 mph N/A   Clear
8:20 AM 50.0 °F - 33.8 °F 54% 29.84 in 10.0 mi South 9.2 mph 19.6 mph N/A   Scattered Clouds
8:40 AM 50.0 °F - 35.6 °F 58% 29.86 in 10.0 mi SSW 6.9 mph 28.8 mph N/A   Mostly Cloudy
9:00 AM 51.8 °F - 35.6 °F 54% 29.87 in 10.0 mi West 13.8 mph 20.7 mph N/A   Partly Cloudy
9:20 AM 53.6 °F - 35.6 °F 51% 29.86 in 10.0 mi WNW 25.3 mph 32.2 mph N/A   Clear
9:40 AM 53.6 °F - 35.6 °F 51% 29.85 in 10.0 mi WNW 28.8 mph 39.1 mph N/A   Clear
10:00 AM 55.4 °F - 33.8 °F 44% 29.84 in 10.0 mi WNW 29.9 mph - N/A   Clear
10:20 AM 55.4 °F - 33.8 °F 44% 29.84 in 10.0 mi WNW 27.6 mph 35.7 mph N/A   Clear
10:40 AM 57.2 °F - 33.8 °F 41% 29.85 in 10.0 mi WNW 24.2 mph 36.8 mph N/A   Clear
11:00 AM 55.4 °F - 33.8 °F 44% 29.85 in 10.0 mi WNW 28.8 mph 34.5 mph N/A   Clear
11:20 AM 57.2 °F - 33.8 °F 41% 29.86 in 10.0 mi West 19.6 mph 33.4 mph N/A   Clear
11:40 AM 57.2 °F - 33.8 °F 41% 29.86 in 10.0 mi WNW 21.9 mph 28.8 mph N/A   Clear
12:00 PM 59.0 °F - 33.8 °F 39% 29.86 in 10.0 mi WNW 23.0 mph 36.8 mph N/A   Clear
12:20 PM 59.0 °F - 35.6 °F 42% 29.87 in 10.0 mi WNW 29.9 mph 36.8 mph N/A   Clear
12:40 PM 57.2 °F - 35.6 °F 44% 29.87 in 10.0 mi WNW 28.8 mph 38.0 mph N/A   Clear
1:00 PM 59.0 °F - 35.6 °F 42% 29.87 in 10.0 mi WNW 32.2 mph - N/A   Clear
1:20 PM 57.2 °F - 35.6 °F 44% 29.87 in 10.0 mi NW 33.4 mph 44.9 mph N/A   Clear
1:40 PM 57.2 °F - 35.6 °F 44% 29.88 in 10.0 mi NW 32.2 mph 51.8 mph N/A   Clear
2:00 PM 57.2 °F - 35.6 °F 44% 29.87 in 10.0 mi NW 35.7 mph 47.2 mph N/A   Clear
2:20 PM 59.0 °F - 35.6 °F 42% 29.86 in 10.0 mi WNW 32.2 mph 40.3 mph N/A   Clear
2:40 PM 59.0 °F - 35.6 °F 42% 29.85 in 10.0 mi WNW 39.1 mph 47.2 mph N/A   Clear
3:00 PM 59.0 °F - 33.8 °F 39% 29.86 in 10.0 mi West 41.4 mph 51.8 mph N/A   Clear
3:20 PM 59.0 °F - 35.6 °F 42% 29.84 in 10.0 mi WNW 40.3 mph 51.8 mph N/A   Clear
3:40 PM 59.0 °F - 35.6 °F 42% 29.85 in 10.0 mi West 44.9 mph 51.8 mph N/A   Clear
4:00 PM 59.0 °F - 35.6 °F 42% 29.84 in 10.0 mi West 43.7 mph 52.9 mph N/A   Clear
4:20 PM 59.0 °F - 35.6 °F 42% 29.82 in 10.0 mi WNW 46.0 mph 54.1 mph N/A   Clear
4:40 PM 57.2 °F - 35.6 °F 44% 29.81 in 10.0 mi West 48.3 mph 64.4 mph N/A   Clear
5:00 PM 57.2 °F - 35.6 °F 44% 29.83 in 10.0 mi WNW 43.7 mph 54.1 mph N/A   Clear
5:20 PM 57.2 °F - 35.6 °F 44% 29.84 in 10.0 mi WNW 35.7 mph 46.0 mph N/A   Clear
5:40 PM 57.2 °F - 35.6 °F 44% 29.85 in 10.0 mi WNW 32.2 mph 47.2 mph N/A   Clear
6:00 PM 57.2 °F - 35.6 °F 44% 29.84 in 10.0 mi WNW 32.2 mph 47.2 mph N/A   Clear
6:20 PM 55.4 °F - 35.6 °F 47% 29.81 in 10.0 mi WNW 38.0 mph 52.9 mph N/A   Clear
6:40 PM 53.6 °F - 35.6 °F 51% 29.83 in 10.0 mi WNW 38.0 mph 52.9 mph N/A   Clear
7:00 PM 53.6 °F - 37.4 °F 54% 29.82 in 10.0 mi WNW 35.7 mph 54.1 mph N/A   Clear
7:20 PM 53.6 °F - 37.4 °F 54% 29.84 in 10.0 mi West 38.0 mph 56.4 mph N/A   Clear
7:40 PM 53.6 °F - 37.4 °F 54% 29.83 in 10.0 mi West 36.8 mph 50.6 mph N/A   Clear
8:00 PM 53.6 °F - 37.4 °F 54% 29.85 in 10.0 mi West 33.4 mph 47.2 mph N/A   Clear
8:20 PM 51.8 °F - 37.4 °F 58% 29.84 in 10.0 mi West 41.4 mph 50.6 mph N/A   Clear
8:40 PM 51.8 °F - 35.6 °F 54% 29.85 in 10.0 mi West 36.8 mph 57.5 mph N/A   Clear
9:00 PM 51.8 °F - 35.6 °F 54% 29.88 in 10.0 mi West 32.2 mph 40.3 mph N/A   Clear
9:20 PM 51.8 °F - 35.6 °F 54% 29.89 in 10.0 mi West 29.9 mph 36.8 mph N/A   Clear
9:40 PM 51.8 °F - 35.6 °F 54% 29.88 in 10.0 mi West 36.8 mph 43.7 mph N/A   Clear
10:00 PM 51.8 °F - 35.6 °F 54% 29.87 in 10.0 mi West 36.8 mph 47.2 mph N/A   Clear
10:20 PM 51.8 °F - 35.6 °F 54% 29.88 in 10.0 mi West 34.5 mph 50.6 mph N/A   Clear
10:40 PM 51.8 °F - 37.4 °F 58% 29.88 in 10.0 mi West 35.7 mph - N/A   Clear
11:00 PM 51.8 °F - 37.4 °F 58% 29.85 in 10.0 mi West 42.6 mph 50.6 mph N/A   Clear
11:20 PM 51.8 °F - 37.4 °F 58% 29.85 in 10.0 mi West 46.0 mph 57.5 mph N/A   Clear
11:40 PM 51.8 °F - 37.4 °F 58% 29.90 in 10.0 mi West 33.4 mph 43.7 mph N/A   Clear